1300579227016,35.8484
1300579287016,35.7360
1300579347016,35.8244
1300579407016,35.9278
1300579467016,35.7776
1300579527016,35.8306
1300579587016,35.7872
1300579647016,35.7361
1300579707016,35.7812
1300579767016,35.7510
1300579827016,35.7845
1300579887016,35.7528
1300579947016,35.8402
1300580007016,35.8131
1300580067016,35.9107
1300580127016,35.7706
1300580187016,35.7906
1300580247016,35.7770
1300580307016,35.8765
1300580367016,35.6832
1300580427016,35.8044
1300580487016,35.7772
1300580547016,35.8257
1300580607016,35.9119
1300580667016,35.8097
1300580727016,35.8837
1300580787016,35.9080
1300580847016,35.6816
1300580907016,35.8249
1300580967016,35.7626
1300581027016,35.6251
1300581087016,35.7204
1300581147016,35.7982
1300581207016,35.8054
1300581267016,35.8310
1300581327016,35.7820
1300581387016,35.7249
1300581447016,35.6743
1300581507016,35.7006
1300581567016,35.7507
1300581627016,35.7037
1300581687016,35.6613
1300581747016,35.6573
1300581807016,35.7124
1300581867016,35.6241
1300581927016,35.7069
1300581987016,35.6093
1300582047016,35.7583
1300582107016,35.5589
1300582167016,35.6347
1300582227016,35.5966
1300582287016,35.6218
1300582347016,35.6774
1300582407016,35.6331
1300582467016,35.7185
1300582527016,35.6281
1300582587016,35.6549
1300582647016,35.4938
1300582707016,35.7706
1300582767016,35.6615
1300582827029,35.6181
1300582887029,35.6003
1300582947029,35.6194
1300583007029,35.7478
1300583067029,35.6348
1300583127029,35.6398
1300583187029,35.5427
1300583247029,35.6963
1300583307029,35.6035
1300583367029,35.6554
1300583427029,35.5798
1300583487029,35.6708
1300583547029,35.7607
1300583607029,35.7615
1300583667029,35.6063
1300583727029,35.6454
1300583787029,35.9829
1300583847029,35.6318
1300583907029,35.6727
1300583967029,35.6123
1300584027029,35.7564
1300584087029,35.7304
1300584147029,35.5526
1300584207029,35.6808
1300584267029,35.7517
1300584327029,35.8105
1300584387029,35.5863
1300584447029,35.6766
1300584507029,35.6065
1300584567029,35.7265
1300584627029,35.7229
1300584687029,35.6663
1300584747029,35.6782
1300584807029,35.6777
1300584867029,35.7296
1300584927029,35.6337
1300584987029,35.5895
1300585047029,35.7715
1300585107029,35.5789
1300585167029,35.6207
1300585227029,35.6616
1300585287029,35.6272
1300585347029,35.7070
1300585407029,35.6668
1300585467029,35.5308
1300585527029,35.6427
1300585587029,35.7134
1300585647029,35.5873
1300585707029,35.7177
1300585767029,35.6386
1300585827029,35.6074
1300585887029,35.5844
1300585947029,35.6856
1300586007029,35.6129
1300586067029,35.7472
1300586127029,35.7251
1300586187029,35.6829
1300586247029,35.6439
1300586307029,35.5453
1300586367029,35.5678
1300586427041,35.6902
1300586487041,35.6113
1300586547041,35.5838
1300586607041,35.6107
1300586667041,35.5630
1300586727041,35.5907
1300586787041,35.7517
1300586847041,35.6581
1300586907041,35.5589
1300586967041,35.5944
1300587027041,35.7011
1300587087041,35.5602
1300587147041,35.7554
1300587207041,35.6176
1300587267041,35.6389
1300587327041,35.5568
1300587387041,35.6159
1300587447041,35.6308
1300587507041,35.4585
1300587567041,35.5532
1300587627041,35.6314
1300587687041,35.6858
1300587747041,35.6273
1300587807041,35.7448
1300587867041,35.6810
1300587927041,35.6759
1300587987041,35.5155
1300588047041,35.5842
1300588107041,35.6421
1300588167041,35.6000
1300588227041,35.5649
1300588287041,35.7395
1300588347041,35.8019
1300588407041,35.6324
1300588467041,35.7098
1300588527041,35.6508
1300588587041,35.6748
1300588647041,35.6028
1300588707041,35.7793
1300588767041,35.7256
1300588827041,35.7478
1300588887041,35.7009
1300588947041,35.7198
1300589007041,35.6785
1300589067041,35.7116
1300589127041,35.6903
1300589187041,35.6086
1300589247041,35.6436
1300589307041,35.6854
1300589367041,35.6681
1300589427041,35.6554
1300589487041,35.6527
1300589547041,35.6461
1300589607041,35.6434
1300589667041,35.7643
1300589727041,35.6911
1300589787041,35.7412
1300589847041,35.6294
1300589907041,35.6397
1300589967041,35.6958
1300590027054,35.5642
1300590087054,35.6933
1300590147054,35.6264
1300590207054,35.6632
1300590267054,35.6228
1300590327054,35.6308
1300590387054,35.5073
1300590447054,35.7215
1300590507054,35.6423
1300590567054,35.6846
1300590627054,35.4577
1300590687054,35.6378
1300590747054,35.6293
1300590807054,35.5619
1300590867054,35.6210
1300590927054,35.5806
1300590987054,35.5612
1300591047054,35.6597
1300591107054,35.4554
1300591167054,35.5777
1300591227054,35.5953
1300591287054,35.5824
1300591347054,35.5121
1300591407054,35.4953
1300591467054,35.6621
1300591527054,35.6790
1300591587054,35.6697
1300591647054,35.5298
1300591707054,35.5607
1300591767054,35.5454
1300591827054,35.5282
1300591887054,35.5247
1300591947054,35.6331
1300592007054,35.5126
1300592067054,35.6372
1300592127054,35.5346
1300592187054,35.6781
1300592247054,35.4029
1300592307054,35.5352
1300592367054,35.5606
1300592427054,35.4997
1300592487054,35.5203
1300592547054,35.5261
1300592607054,35.4365
1300592667054,35.5536
1300592727054,35.5343
1300592787054,35.5581
1300592847054,35.4679
1300592907054,35.4777
1300592967054,35.4922
1300593027054,35.5672
1300593087054,35.6546
1300593147054,35.4370
1300593207054,35.4986
1300593267054,35.5169
1300593327054,35.4936
1300593387054,35.5214
1300593447054,35.5779
1300593507054,35.5748
1300593567054,35.5155
1300593627066,35.5481
1300593687066,35.4895
1300593747066,35.4866
1300593807066,35.4312
1300593867066,35.4257
1300593927066,35.3957
1300593987066,35.4638
1300594047066,35.4627
1300594107066,35.4242
1300594167066,35.4657
1300594227066,35.5358
1300594287066,35.3933
1300594347066,35.3854
1300594407066,35.4656
1300594467066,35.4847
1300594527066,35.4064
1300594587066,35.2770
1300594647066,35.4504
1300594707066,35.3394
1300594767066,35.4248
1300594827066,35.3177
1300594887066,35.5238
1300594947066,35.2997
1300595007066,35.5846
1300595067066,35.5065
1300595127066,35.4380
1300595187066,35.4553
1300595247066,35.3823
1300595307066,35.2990
1300595367066,35.4432
1300595427066,35.4103
1300595487066,35.5074
1300595547066,36.5621
1300595607066,35.4112
1300595667066,35.4562
1300595727066,35.2699
1300595787066,35.4006
1300595847066,35.4756
1300595907066,35.4050
1300595967066,35.5323
1300596027066,35.3780
1300596087066,35.4029
1300596147066,35.3853
1300596207066,35.3948
1300596267066,35.3380
1300596327066,35.3802
1300596387066,35.4337
1300596447066,35.4651
1300596507066,35.5199
1300596567066,35.4976
1300596627066,35.4463
1300596687066,35.5026
1300596747066,35.4661
1300596807066,35.3900
1300596867066,35.4624
1300596927066,35.4530
1300596987066,35.3479
1300597047066,35.4084
1300597107066,35.3759
1300597167066,35.4751
1300597227079,35.4426
1300597287079,35.5026
1300597347079,35.5324
1300597407079,35.4198
1300597467079,35.2691
1300597527079,35.3211
1300597587079,35.3866
1300597647079,35.3694
1300597707079,35.3299
1300597767079,35.4708
1300597827079,35.4238
1300597887079,35.4328
1300597947079,35.4582
1300598007079,35.3571
1300598067079,35.3308
1300598127079,35.5089
1300598187079,35.3466
1300598247079,35.3488
1300598307079,35.5385
1300598367079,35.4166
1300598427079,35.4271
1300598487079,35.4315
1300598547079,35.4569
1300598607079,35.4247
1300598667079,35.3795
1300598727079,35.4826
1300598787079,35.4141
1300598847079,35.4891
1300598907079,35.3095
1300598967079,35.2965
1300599027079,35.4132
1300599087079,35.4050
1300599147079,35.3809
1300599207079,35.4171
1300599267079,35.2797
1300599327079,35.4671
1300599387079,35.4286
1300599447079,35.5357
1300599507079,35.3230
1300599567079,35.4025
1300599627079,35.3589
1300599687079,35.4306
1300599747079,35.3075
1300599807079,35.4878
1300599867079,35.2896
1300599927079,35.3611
1300599987079,35.2720
1300600047079,35.4144
1300600107079,35.3370
1300600167079,35.2910
1300600227079,35.2774
1300600287079,35.3675
1300600347079,35.2544
1300600407079,35.3995
1300600467079,35.3435
1300600527079,35.2314
1300600587079,35.3941
1300600647079,35.3130
1300600707079,35.3656
1300600767079,35.3237
1300600827091,35.4359
1300600887091,35.3553
1300600947091,35.3204
1300601007091,35.2214
1300601067091,35.4351
1300601127091,35.2593
1300601187091,35.3954
1300601247091,35.3707
1300601307091,35.4113
1300601367091,35.3479
1300601427091,35.4860
1300601487091,35.3826
1300601547091,35.3663
1300601607091,35.5108
1300601667091,35.3491
1300601727091,35.3727
1300601787091,35.3013
1300601847091,35.3159
1300601907091,35.3344
1300601967091,35.3752
1300602027091,35.4121
1300602087091,35.1260
1300615347127,35.3726
1300615407127,35.3581
1300615467127,35.4058
1300615527127,35.3294
1300615587127,35.4865
1300615647127,35.3569
1300615707127,35.3244
1300615767127,35.3294
1300615827127,35.3826
1300615887127,35.3369
1300615947127,35.3302
1300616007127,35.2804
1300616067127,35.3203
1300616127127,35.4146
1300616187127,35.2937
1300616247127,35.4041
1300616307127,35.3932
1300616367127,35.2813
1300616427127,35.3143
1300616487127,35.3824
1300616547127,35.4558
1300616607127,35.2796
1300616667127,35.2882
1300616727127,35.4181
1300616787127,35.4007
1300616847127,35.3343
1300616907127,35.3914
1300616967127,35.3631
1300617027127,35.4041
1300617087127,35.4620
1300617147127,35.4114
1300617207127,35.5287
1300617267127,35.4460
1300617327127,35.4098
1300617387127,35.3801
1300617447127,35.4220
1300617507127,35.4704
1300617567127,35.4294
1300617627127,35.4303
1300617687127,35.4997
1300617747127,35.3994
1300617807127,35.3855
1300617867127,35.4596
1300617927127,35.3875
1300617987127,35.3871
1300618047127,35.3987
1300618107127,35.3576
1300618167127,35.3703
1300618227127,35.4874
1300618287127,35.5266
1300618347127,35.3771
1300618407127,35.3558
1300618467127,35.3005
1300618527127,35.3006
1300618587127,35.3434
1300618647127,35.4336
1300618707127,35.2938
1300618767127,35.3836
1300618827139,35.3136
1300618887139,35.3578
1300618947139,35.3203
1300619007139,35.3464
1300619067139,35.3837
1300619127139,35.5200
1300619187139,35.3876
1300619247139,35.4222
1300619307139,35.3684
1300619367139,35.4439
1300619427139,35.3788
1300619487139,35.3876
1300619547139,35.4529
1300619607139,35.3528
1300619667139,35.4698
1300619727139,35.3839
1300619787139,35.4597
1300619847139,35.4331
1300619907139,35.4060
1300619967139,35.5828
1300620027139,35.4975
1300620087139,35.3855
1300620147139,35.5345
1300620207139,35.5031
1300620267139,35.4781
1300620327139,35.5232
1300620387139,35.5215
1300620447139,35.5738
1300620507139,35.4947
1300620567139,35.6286
1300620627139,35.4877
1300620687139,35.4846
1300620747139,35.5869
1300620807139,35.5257
1300620867139,35.4925
1300620927139,35.5918
1300620987139,35.4182
1300621047139,35.4799
1300621107139,35.4960
1300621167139,35.4417
1300621227139,35.5983
1300621287139,35.5540
1300621347139,35.6161
1300621407139,35.4883
1300621467139,35.3640
1300621527139,35.4709
1300621587139,35.4485
1300621647139,35.5043
1300621707139,35.5374
1300621767139,35.4000
1300621827139,35.5468
1300621887139,35.5573
1300621947139,35.5944
1300622007139,35.4897
1300622067139,35.5096
1300622127139,35.3978
1300622187139,35.5536
1300622247139,35.5513
1300622307139,35.6328
1300622367139,35.5649
1300622427151,35.6101
1300622487151,35.4891
1300622547151,35.6307
1300622607151,35.5134
1300622667151,35.5120
1300622727151,35.4887
1300622787151,35.5861
1300622847151,35.5655
1300622907151,35.5593
1300622967151,35.6335
1300623027151,35.5734
1300623087151,35.4734
1300623147151,35.5994
1300623207151,35.5645
1300623267151,35.5817
1300623327151,35.4891
1300623387151,35.5741
1300623447151,35.5829
1300623507151,35.4638
1300623567151,35.5580
1300623627151,35.5826
1300623687151,35.5671
1300623747151,35.5679
1300623807151,35.7074
1300623867151,35.5520
1300623927151,35.5988
1300623987151,35.5056
1300624047151,35.6520
1300624107151,35.5173
1300624167151,35.4185
1300624227151,35.5936
1300624287151,35.5371
1300624347151,35.5166
1300624407151,35.5820
1300624467151,35.7146
1300624527151,35.5194
1300624587151,35.4588
1300624647151,35.6121
1300624707151,35.5110
1300624767151,35.7338
1300624827151,35.6023
1300624887151,35.6072
1300624947151,35.5383
1300625007151,35.5381
1300625067151,35.6801
1300625127151,35.6065
1300625187151,35.6592
1300625247151,35.5565
1300625307151,35.5781
1300625367151,35.6261
1300625427151,35.5980
1300625487151,35.6374
1300625547151,35.6678
1300625607151,35.5961
1300625667151,35.4560
1300625727151,35.5394
1300625787151,35.6256
1300625847151,35.5867
1300625907151,35.6016
1300625967151,35.7544
1300626027163,35.6801
1300626087163,35.5982
1300626147163,35.5878
1300626207163,35.6356
1300626267163,35.5440
1300626327163,35.5688
1300626387163,35.6346
1300626447163,35.6670
1300626507163,35.6586
1300626567163,35.6280
1300626627163,35.5394
1300626687163,35.5148
1300626747163,35.6676
1300626807163,35.5661
1300626867163,35.5859
1300626927163,35.5897
1300626987163,35.6167
1300627047163,35.6756
1300627107163,35.6111
1300627167163,35.4969
1300627227163,35.6793
1300627287163,35.6824
1300627347163,35.6121
1300627407163,35.7958
1300628547163,35.7095
1300628607163,32.6619
1300628667163,35.4865
1300628727163,35.6288
1300628787163,35.5721
1300628847163,35.7622
1300628907163,35.6925
1300628967163,35.7189
1300629027163,35.8771
1300629087163,35.7676
1300629147163,35.7116
1300629207163,35.6645
1300629267163,35.7132
1300629327163,35.7522
1300629387163,35.7133
1300629447163,35.6610
1300629507163,35.6688
1300629567163,35.6602
1300629627175,35.8205
1300629687175,35.7782
1300629747175,35.7452
1300629807175,35.7511
1300629867175,35.8602
1300629927175,35.7230
1300629987175,35.8734
1300630047175,35.7471
1300630107175,35.7593
1300630167175,35.8320
1300630227175,35.7812
1300630287175,35.8424
1300630347175,35.8769
1300630407175,35.7767
1300630467175,35.8642
1300630527175,35.7726
1300630587175,35.7817
1300630647175,35.7482
1300630707175,35.7058
1300630767175,35.6918
1300630827175,35.7878
1300630887175,35.7469
1300630947175,35.7980
1300631007175,35.8902
1300631067175,35.7596
1300631127175,35.8246
1300631187175,35.7606
1300631247175,35.9152
1300631307175,35.8304
1300631367175,36.0194
1300631427175,35.7764
1300631487175,35.7941
1300631547175,35.7867
1300631607175,35.7823
1300631667175,35.8366
1300631727175,35.8766
1300631787175,35.8353
1300631847175,35.8943
1300631907175,35.7906
1300631967175,35.7824
1300632027175,35.7816
1300632087175,35.7476
1300632147175,35.7659
1300632207175,35.9015
1300632267175,35.8221
1300632327175,35.7771
1300632387175,35.8035
1300632447175,35.8792
1300632507175,35.8607
1300632567175,35.8744
1300632627175,35.8301
1300632687175,35.9509
1300632747175,35.8775
1300632807175,35.7577
1300632867175,35.8100
1300632927175,35.8632
1300632987175,35.9234
1300633047175,35.9134
1300633107175,35.8459
1300633167175,35.9612
1300633227187,35.8894
1300633287187,35.8762
1300633347187,35.9560
1300633407187,35.8947
1300633467187,35.9103
1300633527187,35.8512
1300633587187,35.9482
1300633647187,35.9815
1300633707187,35.9034
1300633767187,35.8640
1300633827187,35.9118
1300633887187,35.9276
1300633947187,35.8988
1300634007187,35.8753
1300634067187,35.8917
1300634127187,35.9469
1300634187187,35.8730
1300634247187,35.8433
1300634307187,35.9027
1300634367187,35.9631
1300634427187,36.0130
1300634487187,36.0527
1300634547187,36.0218
1300634607187,35.9064
1300634667187,35.9212
1300634727187,35.9203
1300634787187,35.8750
1300634847187,35.9488
1300634907187,35.9549
1300634967187,35.9201
1300635027187,35.8702
1300635087187,35.8890
1300635147187,35.9045
1300635207187,35.9395
1300635267187,35.8913
1300635327187,36.0061
1300635387187,35.9244
1300635447187,35.8415
1300635507187,35.8535
1300635567187,35.9305
1300635627187,35.8488
1300635687187,35.9105
1300635747187,35.9298
1300635807187,35.9130
1300635867187,35.7885
1300635927187,35.9330
1300635987187,35.8896
1300636047187,35.8818
1300636107187,35.8910
1300636167187,35.9116
1300636227187,35.9041
1300636287187,35.8526
1300636347187,35.8208
1300636407187,35.8613
1300636467187,35.9451
1300636527187,35.9256
1300636587187,35.9439
1300636647187,35.9416
1300636707187,35.9876
1300636767187,35.8695
1300636827198,35.8869
1300636887198,35.9479
1300636947198,35.9713
1300637007198,36.0051
1300637067198,35.8564
1300637127198,36.0351
1300637187198,35.8906
1300637247198,35.8645
1300637307198,35.9189
1300637367198,35.9546
1300637427198,35.9837
1300637487198,36.1664
1300637547198,36.0766
1300637607198,35.9752
1300637667198,35.9404
1300637727198,36.0121
1300637787198,36.1617
1300637847198,36.0457
1300637907198,36.0442
1300637967198,35.9998
1300638027198,36.0187
1300638087198,36.0522
1300638147198,35.9766
1300638207198,36.0689
1300638267198,36.0954
1300638327198,36.0813
1300638387198,36.0868
1300638447198,36.0174
1300638507198,35.9845
1300638567198,36.0824
1300638627198,36.0541
1300638687198,36.0719
1300638747198,35.9587
1300638807198,36.1341
1300638867198,35.9822
1300638927198,36.0156
1300638987198,36.1190
1300639047198,35.9254
1300639107198,36.0424
1300639167198,35.9710
1300639227198,35.9817
1300639287198,36.0479
1300639347198,35.9575
1300639407198,36.0386
1300639467198,36.0309
1300639527198,35.9821
1300639587198,36.0064
1300639647198,36.1856
1300639707198,36.0450
1300639767198,36.0931
1300639827198,35.9977
1300639887198,35.9537
1300639947198,36.0570
1300640007198,35.9847
1300640067198,36.0863
1300640127198,36.1175
1300640187198,36.1461
1300640247198,36.0643
1300640307198,36.0892
1300640367198,36.0686
1300640427210,36.0156
1300640487210,35.9860
1300640547210,35.9683
1300640607210,36.0046
1300640667210,36.0982
1300640727210,36.0317
1300640787210,35.9525
1300640847210,36.1533
1300640907210,36.0498
1300640967210,36.0257
1300641027210,36.1695
1300641087210,36.0790
1300641147210,36.1219
1300641207210,36.0490
1300641267210,36.0576
1300641327210,36.0823
1300641387210,36.0103
1300641447210,36.0514
1300641507210,35.9678
1300641567210,36.0879
1300641627210,35.9801
1300641687210,36.0306
1300641747210,35.9591
1300641807210,35.9325
1300641867210,36.0374
1300641927210,35.9978
1300641987210,36.0787
1300642047210,35.9818
1300642107210,35.9193
1300642167210,36.1543
1300642227210,36.1183
1300642287210,36.1158
1300642347210,36.0980
1300642407210,36.1259
1300642467210,36.1179
1300642527210,36.0685
1300642587210,36.0675
1300642647210,36.1156
1300642707210,35.9648
1300642767210,36.0515
1300642827210,36.0753
1300642887210,35.9956
1300642947210,36.0825
1300643007210,35.9729
1300643067210,35.9930
1300643127210,35.9074
1300643187210,35.9141
1300643247210,36.0451
1300643307210,35.8813
1300643367210,36.0623
1300643427210,35.9368
1300643487210,36.0368
1300643547210,36.0445
1300643607210,35.9944
1300643667210,36.1064
1300643727210,36.2325
1300643787210,35.9742
1300643847210,35.9797
1300643907210,35.8975
1300643967210,36.0892
1300644027222,36.0092
1300644087222,36.0436
1300644147222,36.1293
1300644207222,35.9686
1300644267222,36.0099
1300644327222,36.0173
1300644387222,35.9229
1300644447222,35.8291
1300644507222,36.0850
1300644567222,35.9204
1300644627222,35.9277
1300644687222,35.9853
1300644747222,35.9041
1300644807222,36.0311
1300644867222,35.9949
1300644927222,36.0053
1300644987222,35.8689
1300645047222,35.8902
1300645107222,35.9135
1300645167222,36.0140
1300645227222,35.9051
1300645287222,35.9480
1300645347222,35.8200
1300645407222,35.9842
1300645467222,35.9809
1300645527222,35.8892
1300645587222,35.9112
1300645647222,35.8804
1300645707222,35.8798
1300645767222,35.9151
1300645827222,35.8463
1300645887222,35.9016
1300645947222,35.8024
1300646007222,35.8776
1300646067222,35.9432
1300646127222,35.8911
1300646187222,35.9137
1300646247222,35.9207
1300646307222,35.9675
1300646367222,35.8739
1300646427222,35.9038
1300646487222,35.9080
1300646547222,35.9415
1300646607222,35.8623
1300646667222,35.8653
1300646727222,35.8794
1300646787222,35.8594
1300646847222,35.8558
1300646907222,35.8973
1300646967222,35.9789
1300647027222,35.8086
1300647087222,35.8838
1300647147222,35.8896
1300647207222,35.8442
1300647267222,35.7418
1300647327222,35.7396
1300647387222,35.8104
1300647447222,35.7785
1300647507222,35.7810
1300647567222,35.7403
1300647627234,35.8092
1300647687234,35.8207
1300647747234,35.8401
1300647807234,35.7278
1300647867234,35.7492
1300647927234,35.7995
1300647987234,35.8424
1300648047234,35.8890
1300648107234,35.7089
1300648167234,35.8540
1300648227234,35.8181
1300648287234,35.7681
1300648347234,35.7759
1300648407234,35.7629
1300648467234,35.8481
1300648527234,35.7815
1300648587234,35.7839
1300648647234,35.8734
1300648707234,35.7032
1300648767234,35.7610
1300648827234,35.7792
1300648887234,35.7866
1300648947234,35.8326
1300649007234,35.8143
1300649067234,35.7467
1300649127234,35.6636
1300649187234,35.7853
1300649247234,35.7910
1300649307234,35.7599
1300649367234,35.7513
1300649427234,35.6217
1300649487234,35.8064
1300649547234,35.7556
1300649607234,35.7295
1300649667234,35.6719
1300649727234,35.7376
1300649787234,35.8078
1300649847234,35.8101
1300649907234,35.6809
1300649967234,35.6921
1300650027234,35.6753
1300650087234,35.7041
1300650147234,35.7604
1300650207234,35.5866
1300650267234,35.7136
1300650327234,35.7532
1300650387234,35.5951
1300650447234,35.7590
1300650507234,35.6646
1300650567234,35.7046
1300650627234,35.7055
1300650687234,35.6704
1300650747234,35.7009
1300650807234,35.7128
1300650867234,35.6838
1300650927234,35.6579
1300650987234,35.7589
1300651047234,35.6027
1300651107234,35.7029
1300651167234,35.7693
1300651227245,35.7404
1300651287245,35.6294
1300651347245,35.6362
1300651407245,35.6370
1300651467245,35.6636
1300651527245,35.7364
1300651587245,35.6489
1300651647245,35.5838
1300651707245,35.6414
1300651767245,35.6289
1300651827245,35.6447
1300651887245,35.6230
1300651947245,35.6012
1300652007245,35.5584
1300652067245,35.4996
1300652127245,35.5693
1300652187245,35.5754
1300652247245,35.6094
1300652307245,35.5945
1300652367245,35.5105
1300652427245,35.5565
1300652487245,35.5870
1300652547245,35.6824
1300652607245,35.5990
1300652667245,35.6780
1300652727245,35.5420
1300652787245,35.5562
1300652847245,35.6209
1300652907245,35.5340
1300652967245,35.6485
1300653027245,35.7229
1300653087245,35.4926
1300653147245,35.5458
1300653207245,35.5129
1300653267245,35.4992
1300653327245,35.6049
1300653387245,35.6043
1300653447245,35.5429
1300653507245,35.5612
1300653567245,35.6499
1300653627245,35.4981
1300653687245,35.6110
1300653747245,35.5435
1300653807245,35.5740
1300653867245,35.6693
1300653927245,35.5901
1300653987245,35.6160
1300654047245,35.4533
1300654107245,35.6926
1300654167245,35.5875
1300654227245,35.6567
1300654287245,35.5553
1300654347245,35.5173
1300654407245,35.6148
1300654467245,35.5532
1300654527245,35.3700
1300654587245,35.3992
1300654647245,35.4599
1300654707245,35.5482
1300654767245,35.4876
1300654827257,35.5056
1300654887257,35.4816
1300654947257,35.5119
1300655007257,35.6134
1300655067257,35.5613
1300655127257,35.5712
1300655187257,35.4233
1300655247257,35.6320
1300655307257,35.5966
1300655367257,35.8334
1300655427257,35.6195
1300655487257,35.6495
1300655547257,35.5663
1300655607257,35.6071
1300655667257,35.5519
1300655727257,35.6442
1300655787257,35.6236
1300655847257,35.5462
1300655907257,35.4978
1300655967257,35.4641
1300656027257,35.5379
1300656087257,35.5193
1300656147257,35.5408
1300656207257,35.4667
1300656267257,35.4834
1300656327257,35.5735
1300656387257,35.5647
1300656447257,35.5742
1300656507257,35.5545
1300656567257,35.4519
1300656627257,35.5334
1300656687257,35.5245
1300656747257,35.5460
1300656807257,35.4760
1300656867257,35.5483
1300656927257,35.5112
1300656987257,35.4945
1300657047257,35.5506
1300657107257,35.3859
1300657167257,35.5998
1300657227257,35.5304
1300657287257,35.4031
1300657347257,35.4578
1300657407257,35.5460
1300657467257,35.5035
1300657527257,35.5087
1300657587257,35.3949
1300657647257,35.5081
1300657707257,35.6169
1300657767257,35.4435
1300657827257,35.3159
1300657887257,35.5016
1300657947257,35.6069
1300658007257,35.5453
1300658067257,35.3503
1300658127257,35.4426
1300658187257,35.4633
1300658247257,35.5432
1300658307257,35.4850
1300658367257,35.4225
1300658427269,35.4057
1300658487269,35.3918
1300658547269,35.4855
1300658607269,35.4961
1300658667269,35.3446
1300658727269,35.4854
1300658787269,35.4664
1300658847269,35.5688